Content
SEND FEEDBACK

Daily
Averages
Monthly
Summary
United States of America

ECKERT, COLORADO


Home > North America > United States > Colorado
Elevation: 1878 meters     Latitude: 38 54N     Longitude: 107 56W

WEATHER
 
SELECT A DAY
Number of Records: 59,121;   Date Range: 2/9/12 - 9/21/14
 
SHARE

PRINT THIS DATA

[ ← Previous Day ]
WEATHER ALMANAC - 23 JANUARY, 2013
[ Next Day → ]
[ °F ]   °C
Weather ElementAverageHighLow
Temperature-4.9 °C3.6 °C (3:15 pm)-13.5 °C (6:35 am)
Dewpoint-11.3 °C-7.5 °C (6:35 pm)-16 °C (6:35 am)
Humidity64.4 %83 % (4:35 am)34 % (2:35 pm)
Barometer1029.8 hPa1031.5 hPa (2:55 am)1027.8 hPa (3:55 pm)
Wind Speed1.9 km/h9.3 km/h (4:55 pm)
Weather ElementAverage
Visibility16.1 km
Wind DirectionNE (43.5 °)

Weather ElementTotal
Precipitation---
Heating Degree Days23.3 (Base 18.3)
Averaged from 71 records on 23 January, 2013
WEATHER CONDITIONS BREAKOUT
WIND DIRECTION BREAKOUT
WEATHER BY HOUR - 23 JANUARY, 2013
[ °F ]   °C
Local TimeTemperatureDewpointHumidityBarometerVisibilityWind DirectionWind SpeedGust SpeedPrecipitationEventsConditions
12:35 AM-7.6 °C-11.4 °C75 %1030.5 hPa16.1 kmNE (50°)5.6 km/hClear
12:55 AM-8.7 °C-12.3 °C76 %1030.1 hPa16.1 kmCalmClear
1:15 AM-8.3 °C-12.5 °C72 %1030.5 hPa16.1 kmEast (90°)5.6 km/hClear
1:35 AM-8.9 °C-12.3 °C77 %1030.5 hPa16.1 kmCalmClear
1:55 AM-9.2 °C-13.3 °C73 %1030.8 hPa16.1 kmCalmClear
2:15 AM-10.4 °C-13.3 °C80 %1030.8 hPa16.1 kmCalmClear
2:35 AM-9.4 °C-12.6 °C78 %1031.2 hPa16.1 kmCalmClear
2:55 AM-9.6 °C-13.3 °C75 %1031.5 hPa16.1 kmCalmClear
3:15 AM-11.1 °C-13.9 °C80 %1031.5 hPa16.1 kmCalmClear
3:35 AM-11.1 °C-13.6 °C82 %1031.5 hPa16.1 kmCalmClear
3:55 AM-11 °C-13.8 °C80 %1031.2 hPa16.1 kmCalmClear
4:15 AM-11 °C-13.8 °C80 %1031.2 hPa16.1 kmCalmClear
4:35 AM-13 °C-15.3 °C83 %1030.8 hPa16.1 kmCalmClear
4:55 AM-12.4 °C-14.8 °C83 %1031.2 hPa16.1 kmCalmClear
5:15 AM-11.6 °C-14.3 °C81 %1031.2 hPa16.1 kmNNW (330°)5.6 km/hClear
5:35 AM-11.3 °C-13.9 °C81 %1031.2 hPa16.1 kmCalmClear
5:55 AM-12 °C-15 °C79 %1030.8 hPa16.1 kmENE (70°)5.6 km/hClear
6:15 AM-12.5 °C-15.4 °C79 %1030.8 hPa16.1 kmENE (70°)7.4 km/hClear
6:35 AM-13.5 °C-16 °C82 %1031.2 hPa16.1 kmCalmClear
6:55 AM-12.8 °C-15.1 °C83 %1031.5 hPa16.1 kmCalmClear
7:15 AM-12.3 °C-15.1 °C80 %1031.2 hPa16.1 kmCalmClear
7:35 AM-11.4 °C-14.2 °C80 %1031.2 hPa16.1 kmEast (90°)5.6 km/hClear
7:55 AM-11.6 °C-14.9 °C77 %1030.8 hPa16.1 kmNE (50°)7.4 km/hClear
8:15 AM-10.1 °C-13.7 °C75 %1030.8 hPa16.1 kmCalmClear
8:35 AM-10.1 °C-13.7 °C75 %1030.8 hPa16.1 kmCalmClear
8:55 AM-10.6 °C-14 °C77 %1030.8 hPa16.1 kmCalmClear
9:15 AM-8.8 °C-13.1 °C72 %1030.8 hPa16.1 kmCalmClear
9:35 AM-8.4 °C-13.1 °C69 %1030.8 hPa16.1 kmCalmClear
9:55 AM-7.1 °C-12.6 °C65 %1030.8 hPa16.1 kmCalmClear
10:15 AM-6.3 °C-12.2 °C64 %1030.5 hPa16.1 kmCalmClear
10:35 AM-5.1 °C-11.9 °C59 %1030.8 hPa16.1 kmCalmClear
10:55 AM-4 °C-11.5 °C57 %1030.8 hPa16.1 kmCalmClear
11:15 AM-2.5 °C-11.4 °C51 %1030.5 hPa16.1 kmCalmClear
11:35 AM-1.4 °C-11.8 °C46 %1030.5 hPa16.1 kmCalmClear
11:55 AM-0.3 °C-10.9 °C45 %1030.5 hPa16.1 kmCalmClear
12:15 PM0.6 °C-11 °C42 %1030.1 hPa16.1 kmSouth (190°)5.6 km/hClear
12:35 PM1.7 °C-11 °C39 %1029.8 hPa16.1 kmSouth (170°)5.6 km/hClear
12:55 PM1.5 °C-9.9 °C43 %1029.5 hPa16.1 kmEast (80°)7.4 km/hClear
1:15 PM1.8 °C-10.2 °C41 %1029.5 hPa16.1 kmENE (70°)5.6 km/hClear
1:35 PM2.3 °C-10.8 °C38 %1029.1 hPa16.1 kmCalmClear
1:55 PM2.6 °C-10.6 °C38 %1029.1 hPa16.1 kmCalmClear
2:15 PM2.9 °C-10.4 °C37 %1028.8 hPa16.1 kmCalmClear
2:35 PM3.5 °C-11.1 °C34 %1028.8 hPa16.1 kmCalmClear
2:55 PM3.2 °C-10.9 °C35 %1028.8 hPa16.1 kmCalmClear
3:15 PM3.6 °C-10.2 °C36 %1028.4 hPa16.1 kmCalmClear
3:35 PM3.6 °C-10.7 °C35 %1028.1 hPa16.1 kmCalmClear
3:55 PM3.6 °C-9.8 °C37 %1027.8 hPa16.1 kmCalmClear
4:15 PM3.5 °C-9.5 °C39 %1027.8 hPa16.1 kmCalmClear
4:35 PM3.1 °C-8.8 °C42 %1027.8 hPa16.1 kmWSW (250°)7.4 km/hClear
4:55 PM2.6 °C-8.9 °C43 %1028.1 hPa16.1 kmWSW (240°)9.3 km/hClear
5:15 PM1.9 °C-8.8 °C46 %1028.1 hPa16.1 kmSW (220°)7.4 km/hClear
5:35 PM0.1 °C-8.1 °C55 %1028.1 hPa16.1 kmSSW (210°)9.3 km/hClear
5:55 PM-0.5 °C-8 °C57 %1028.1 hPa16.1 kmCalmClear
6:15 PM-1.3 °C-7.6 °C63 %1028.4 hPa16.1 kmCalmClear
6:35 PM-2.2 °C-7.5 °C67 %1028.8 hPa16.1 kmCalmClear
6:55 PM-2.7 °C-7.7 °C69 %1028.4 hPa16.1 kmCalmClear
7:15 PM-2.9 °C-8.1 °C68 %1028.4 hPa16.1 kmCalmClear
7:35 PM-3.1 °C-8.2 °C68 %1028.8 hPa16.1 kmNNW (340°)7.4 km/hClear
7:55 PM-2.6 °C-7.7 °C68 %1028.1 hPa16.1 kmNorth (350°)5.6 km/hClear
8:15 PM-2.1 °C-8 °C64 %1028.4 hPa16.1 kmCalmClear
8:35 PM-3.1 °C-8.2 °C68 %1028.4 hPa16.1 kmCalmClear
8:55 PM-4 °C-8.6 °C71 %1028.1 hPa16.1 kmCalmClear
9:15 PM-3.5 °C-8.9 °C67 %1028.8 hPa16.1 kmCalmClear
9:35 PM-5.2 °C-9.1 °C74 %1028.4 hPa16.1 kmEast (90°)7.4 km/hClear
9:55 PM-5.2 °C-8.9 °C76 %1028.8 hPa16.1 kmCalmClear
10:15 PM-4.8 °C-8.9 °C73 %1028.8 hPa16.1 kmNNE (30°)5.6 km/hClear
10:35 PM-5.1 °C-9.3 °C73 %1028.8 hPa16.1 kmCalmClear
10:55 PM-4.5 °C-9 °C71 %1028.8 hPa16.1 kmCalmClear
11:15 PM-4.4 °C-9 °C71 %1028.8 hPa16.1 kmCalmClear
11:35 PM-5 °C-9.3 °C72 %1028.8 hPa16.1 kmEast (100°)5.6 km/hClear
11:55 PM-7.3 °C-10.2 °C80 %1028.8 hPa16.1 kmCalmClear
Hourly data recorded from KAJZ, located 0 kilometers away from Eckert, Colorado







STORIES FROM OUR PARTNERS